Home > Weather > Langenhagen > Past weeks

Flag for Germany Past Weather in Langenhagen, Lower Saxony, Germany — Yesterday and Last 2 Weeks

Now
52 °F

Partly cloudy.


Feels Like: 52 °F
Forecast: 48 / 65 °F
Wind: 1 mph from North

Location: Hannover

Current Time: May 26, 2016 at 12:45:16 AM

Latest Report: May 26, 2016 at 12:20 AM


Visibility: N/A

Pressure: 30.01 "Hg

Humidity: 100%

Dew Point: 52 °F

Location of LangenhagenLocation

Past Weather in Langenhagen — Graph

°F

Langenhagen Temperature Yesterday

Maximum temperature yesterday: 57 °F (at 2:50 PM)
Minimum temperature yesterday: 50 °F (at 3:20 AM)
Average temperature yesterday: 54 °F

High & Low Weather Summary for the Past Weeks

 TemperatureHumidityPressure
High81 °F (May 22, 2:20 PM)100% (May 15, 1:50 AM)30.07 "Hg (May 15, 1:50 AM)
Low39 °F (May 16, 5:20 AM)28% (May 13, 11:50 AM)29.53 "Hg (May 12, 7:20 PM)
Average57 °F74%29.86 "Hg
* Reported May 10 11:20 PM — May 25 11:20 PM, Langenhagen, Weather by CustomWeather, © 2016

Note: Actual official high and low records may vary slightly from our data, if they occured in-between our weather recording intervals... More about our weather records

Advertising

Langenhagen Weather History for the Previous 24 Hours

Scroll right to see more
 ConditionsComfort  
Time TempWeatherWind HumidityBarometerVisibility
11:20 PM
Wed, May 25
54 °FPassing clouds.2 mph94%30.01 "HgN/A
10:50 PM54 °FPassing clouds.1 mph94%30.01 "HgN/A
10:20 PM54 °FPartly sunny.1 mph94%30.01 "HgN/A
9:50 PM54 °FPartly sunny.2 mph94%30.01 "HgN/A
9:20 PM55 °FPartly sunny.2 mph88%29.98 "HgN/A
8:50 PM55 °FPartly sunny.2 mph88%29.98 "HgN/A
8:20 PM57 °FPartly sunny.1 mph77%29.98 "HgN/A
7:50 PM57 °FPartly sunny.2 mph77%29.98 "HgN/A
7:20 PM57 °FPartly sunny.3 mph82%29.98 "HgN/A
6:50 PM57 °FPartly sunny.5 mph77%29.98 "HgN/A
6:20 PM57 °FPartly sunny.6 mph77%29.98 "HgN/A
5:50 PM57 °FPartly sunny.6 mph77%29.98 "HgN/A
5:20 PM57 °FPartly sunny.6 mph77%29.98 "HgN/A
4:50 PM57 °FPartly sunny.6 mph77%29.98 "HgN/A
4:20 PM57 °FPartly sunny.6 mph77%29.98 "HgN/A
3:50 PM57 °FPartly sunny.7 mph77%29.98 "HgN/A
3:20 PM55 °FPartly sunny.8 mph82%29.98 "HgN/A
2:50 PM57 °FPartly sunny.7 mph77%29.98 "HgN/A
2:20 PM55 °FPartly sunny.7 mph82%29.98 "HgN/A
1:50 PM55 °FPartly sunny.6 mph77%29.98 "HgN/A
1:20 PM55 °FPartly sunny.6 mph77%29.98 "HgN/A
12:50 PM54 °FPartly sunny.5 mph82%29.98 "HgN/A
12:20 PM54 °FPartly sunny.6 mph82%29.98 "HgN/A
11:50 AM54 °FPartly sunny.7 mph82%29.98 "HgN/A
11:20 AM52 °FPartly sunny.6 mph88%29.98 "HgN/A
10:50 AM52 °FPartly sunny.7 mph88%29.98 "HgN/A
10:20 AM52 °FPartly sunny.6 mph88%29.98 "HgN/A
9:50 AM52 °FPartly sunny.6 mph88%29.98 "HgN/A
9:20 AM52 °FPartly sunny.6 mph88%29.98 "HgN/A
8:50 AM52 °FPartly sunny.6 mph88%29.98 "HgN/A
8:20 AM52 °FPartly sunny.6 mph88%29.98 "HgN/A
7:50 AM52 °FOvercast.7 mph88%29.98 "HgN/A
7:20 AM52 °FPartly sunny.5 mph88%29.98 "HgN/A
6:50 AM52 °FPartly sunny.7 mph82%29.95 "HgN/A
6:20 AM50 °FPartly sunny.5 mph94%29.95 "HgN/A
5:50 AM50 °FPassing clouds.5 mph94%29.95 "HgN/A
5:20 AM50 °FPassing clouds.5 mph94%29.95 "HgN/A
4:50 AM50 °FPassing clouds.5 mph94%29.95 "HgN/A
4:20 AM50 °FPassing clouds.6 mph94%29.95 "HgN/A
3:50 AM50 °FPassing clouds.6 mph94%29.95 "HgN/A
3:20 AM50 °FPassing clouds.5 mph94%29.95 "HgN/A
2:50 AM52 °FPassing clouds.3 mph88%29.95 "HgN/A
2:20 AM52 °FPassing clouds.5 mph88%29.95 "HgN/A
1:50 AM52 °FPassing clouds.6 mph88%29.98 "HgN/A
1:20 AM52 °FPassing clouds.6 mph88%29.98 "HgN/A
12:50 AM52 °FPassing clouds.6 mph88%29.98 "HgN/A
12:20 AM52 °FPassing clouds.8 mph88%29.95 "HgN/A
Weather by CustomWeather, © 2016

See weather overviewHow to use our weather pages